CZ-6A DEB, 54460

Orbit data source: Space-Track

CZ-6A DEB, 54460 is space debris in SSO originally from a launch on Fri, 11 Nov 2022 UTC launched from the Taiyaun Space Center, China (TSC). Debris objects in space refer to the collection of defunct objects orbiting the Earth. Examples of debris include non-operational satellites, rocket bodies, and fragments generated from explosions, collisions, or faulty payload assembly.

Loading next visibility...
Identifier
54460, 2022-151GL
Orbit
SSO
Country
Flag of CNCN / PRC
Related business
Manufacturer
SAST
Mission
Spacecraft
Bus & Motor
Unknown
Mass
Unknown
Launch date (UTC)
2022-11-11 (3 years ago)
Launch vehicle
Unknown
Launch site
Taiyaun Space Center, China (TSC)
Object type
Payload
Rocket body
Debris
Shape & HBR
Unknown shape, 0.1 m
Radar Cross Section
Small (<0.1 m²)

Expand to show TLE details & history
Last TLE update: 15 hours ago

TLE from 15 hours ago
0 CZ-6A DEB
1 54460U 22151GL  25352.59887685  .00001338  00000-0  44871-3 0  9995
2 54460  98.6961  19.5431 0123103 245.3433 113.4891 14.34814223161745
Epoch: 2025-12-18T14:22Z
TLE epoch observation values (Epoch: 2025-12-18T14:22:22.959Z)
Latitude
-0.00002°
Longitude
76.49536°
Altitude
814.632 km
Speed
7.427 km/s
True Right ascension
01h 18m 10s
True Declination
0° 00' 00"
Sunlit
Object was in daylight at epoch
Visualization orbit readout
Latitude
Unknown
Longitude
Unknown
Altitude
Unknown
Speed
Unknown
Apparent Right ascension
Unknown
Apparent Declination
Unknown
Sunlit
N/A
Visualization observer readout
Local Sidereal Time
04:10:54
Azimuth
Unknown
Elevation
Unknown
Doppler factor
Unknown
Orbital elements
Apogee altitude
860.852 km
Perigee altitude
684.791 km
Semi-major axis
7,150.958 km
Eccentricity
0.01231
Inclination
98.6961°
RAAN
19.5431°
Arg. of periapsis
245.3433°
True anomaly
114.77487°
Mean anomaly
113.4891°
Eccentric anomaly
114.13278°
Mean motion
3.58919 °/min
Orbital period
100.3 mins
BSTAR
0.00044871
Loading maneuver chart data...
Computing Atmospheric mass density...
Loading historical data...
Loading historical data...
Loading historical data...
Loading historical data...
Loading historical data...
Loading historical data...
Loading historical data...

Documentation

Showing up to 5 results
|